Location: Waco, TX
(31.5480°N, 97.1670°W)
Time: 00:33:30
(UTC-05:00)

ISS - Pass Details

Date: 19 October 2018
Orbit: 403 x 408 km, 51.6° (Epoch: 21 October)

Event Time Altitude Azimuth Distance (km) Brightness Sun altitude
Rises 10:36:38 0° 264° (W) 2,314 -0.3 33.9°
Reaches altitude 10° 10:39:23 10° 289° (WNW) 1,459 -1.4 34.3°
Maximum altitude 10:41:20 15° 326° (NW) 1,207 -1.8 34.6°
Drops below altitude 10° 10:43:17 10° 3° (N) 1,464 -1.2 35.0°
Sets 10:46:04 0° 28° (NNE) 2,328 -0.1 35.4°
